This demonstration page uses our WeatherBlox Daily Observations layout. Learn more.

Left ArrowRight Arrow

Hourly Observations for June 1, 2016

Temp ( °F °C ) Dew Point ( °F °C ) Humidity (%) Winds ( mph kmh ) Pressure ( in mb ) Visibility ( mi km ) Precip ( " mm )
12:53 am 00:53 Clear 75 23.9 54 12.2 48 48 N 5 7 29.75 1008 10 16 0.00 0.00
1:53 am 01:53 Clear 73 22.8 53 11.7 50 50 NNW 6 9 29.75 1008 10 16 0.00 0.00
2:53 am 02:53 Clear 69 20.6 53 11.7 57 57 NW 5 7 29.75 1008 9 14 0.00 0.00
3:53 am 03:53 Clear 70 21.1 53 11.7 55 55 NNW 6 9 29.75 1008 10 16 0.00 0.00
4:53 am 04:53 Clear 66 18.9 53 11.7 63 63 NNW 3 6 29.76 1008 10 16 0.00 0.00
5:53 am 05:53 Sunny 64 17.8 54 12.2 70 70 Calm 29.77 1008 10 16 0.00 0.00
6:53 am 06:53 Sunny 70 21.1 53 11.7 55 55 NNW 3 6 29.79 1009 10 16 0.00 0.00
7:53 am 07:53 Sunny 76 24.4 54 12.2 47 47 N 5 7 29.79 1009 10 16 0.00 0.00
8:53 am 08:53 Sunny 81 27.2 52 11.1 37 37 VRB 5 7 29.80 1009 10 16 0.00 0.00
9:05 am 09:05 Sunny 68 20 50 10 53 53 Calm 29.83 1010 10 16 0.00 0.00
9:53 am 09:53 Sunny 86 30 51 10.6 30 30 NNW 5 7 29.80 1009 10 16 0.00 0.00
10:53 am 10:53 Sunny 90 32.2 48 8.9 24 24 SE 5 7 29.79 1009 10 16 0.00 0.00
11:53 am 11:53 Sunny 90 32.2 52 11.1 27 27 Calm 29.79 1009 10 16 0.00 0.00
12:53 pm 12:53 Sunny 93 33.9 48 8.9 21 21 VRB 6 9 29.78 1009 10 16 0.00 0.00
1:53 pm 13:53 Sunny 95 35 49 9.4 21 21 S 8 13 29.78 1008 10 16 0.00 0.00
2:10 pm 14:10 Sunny 100 38 32 0 9 9 SSE 6 9 N/A 10 16 0.00 0.00
2:53 pm 14:53 Sunny 97 36.1 54 12.2 24 24 SSE 9 15 29.77 1008 10 16 0.00 0.00
3:53 pm 15:53 Sunny 98 36.7 50 10 20 20 SE 14 22 29.75 1007 10 16 0.00 0.00
4:53 pm 16:53 Sunny 102 39 36 2 10 10 N 6 9 29.71 1006 10 16 0.00 0.00
5:53 pm 17:53 Sunny 99 37 45 7 16 16 SSE 13 20 N/A 2 3 0.00 0.00
6:53 pm 18:53 Sunny 96 35.6 46 7.8 18 18 S 10 17 29.74 1007 10 16 0.00 0.00
7:53 pm 19:53 Sunny 93 33.9 47 8.3 21 21 S 8 13 29.76 1008 10 16 0.00 0.00
8:53 pm 20:53 Clear 90 32.2 49 9.4 24 24 VRB 3 6 29.78 1009 10 16 0.00 0.00
9:53 pm 21:53 Clear 85 29.4 44 6.7 24 24 Calm 29.80 1009 10 16 0.00 0.00
10:53 pm 22:53 Clear 84 28.9 30 -1.1 14 14 WNW 5 7 29.83 1010 10 16 0.00 0.00
11:53 pm 23:53 Clear 80 26.7 37 2.8 21 21 W 7 11 29.83 1010 10 16 0.00 0.00

Powered by AerisWeather